{"data":{"norad_id":65766,"intl_designator":"2025-217E","name":"KUIPER-00142","alt_names":[],"object_type":"PAYLOAD","status":"ACTIVE","operator":null,"country":"US","launch_date":"2025-09-25","launch_site_code":"AFETR","launch_vehicle":null,"mission":null,"orbit_class":"UNKNOWN","rcs_meters":null,"size_class":null,"mass_kg":null,"dimensions":null,"purposes":[],"wikipedia_slug":null,"has_3d_model":false,"image_url":null,"decayed_at":null,"tle_current":{"epoch":"2026-09-19T15:17:22.059168Z","epoch_age_seconds":221324,"freshness":"STALE","line1":"1 65766U 25217E   26262.63706087  .00000155  00000+0  49325-4 0  9999","line2":"2 65766  51.9034 257.9429 0001264  33.1405 326.9637 14.79925260 53707","mean_motion":14.7992526,"eccentricity":0.0001264,"inclination_deg":51.9034,"raan_deg":257.9429,"arg_perigee_deg":33.1405,"mean_anomaly_deg":326.9637,"bstar":4.9325e-5,"rev_number":5370,"period_min":97.302211058956,"perigee_km":628.6742896348,"apogee_km":630.44583545221,"semimajor_km":7007.6970625435,"source":"CELESTRAK","updated_at":"2026-09-21T09:00:15.534533Z"}}}